Location: Riverside Cemetery
(38.3047°N, 99.7773°W)
Time: 00:49:33
(UTC+00:00)

Intercosmos 25 - Pass Details

Date: 19 September 2020
Orbit: 440 x 2876 km, 82.6° (Epoch: 23 October)

Event Time Altitude Azimuth Distance (km) Brightness Sun altitude
Rises 11:32:26 0° 182° (S) 3,647 7.4 -11.0°
Reaches altitude 10° 11:35:23 10° 181° (S) 2,382 6.4 -10.5°
Maximum altitude 11:40:21 75° 97° (E) 616 3.7 -9.5°
Drops below altitude 10° 11:43:50 10° 12° (NNE) 1,688 6.1 -8.8°
Sets 11:45:39 0° 10° (N) 2,489 6.9 -8.5°
